Regional Weather Roundup
Issued by NWS Grand Forks, ND

Home | Current Version | Previous Version | Text Only | Print | Product List | Glossary On
Versions: 1 2 3 4 5 6 7 8 9 10 11 12 13 14 15 16 17 18 19 20 21 22 23 24 25 26 27 28 29 30 31 32 33 34 35 36 37 38 39 40 41 42 43 44 45 46 47 48 49 50
000
ASUS43 KFGF 050231
RWRFGF
PRAIRIE TO PINES  WEATHER ROUNDUP
NATIONAL WEATHER SERVICE EASTERN NORTH DAKOTA/GRAND FORKS ND
900 PM CDT TUE AUG 04 2015

 **SATELLITE DATA USED TO AUGMENT SKY COVER AT AUTOMATED STATIONS**
 *****  WEATHER ACROSS EASTERN NORTH DAKOTA  *****

CITY           SKY/WX    TMP DP  RH WIND       PRES   REMARKS
GRAND FORKS    CLEAR     66  56  70 N6        30.00S
GRAND FRKS AFB CLEAR     69  53  58 E6        30.01R
GRAND FRKS NWS   N/A     68 N/A N/A VRB5        N/A
DEVILS LAKE      N/A    N/A N/A N/A MISG        N/A
FARGO          CLEAR     68  55  63 E5        30.00R
WAHPETON ARPT  CLEAR     70  46  43 NE3       30.01R
$$

 ***** WEATHER ACROSS CENTRAL AND WESTERN NORTH DAKOTA  *****

CITY           SKY/WX    TMP DP  RH WIND       PRES   REMARKS
BISMARCK       PTCLDY    76  61  59 SE6       29.94R
MINOT          PTCLDY    69  54  58 E8        29.95R
JAMESTOWN      CLEAR     68  58  70 E8        29.99R
MINOT AFB      PTCLDY    72  56  58 E13       29.94R
GARRISON         N/A     71  60  68 E8        29.94R
WILLISTON      CLOUDY    82  55  39 SE15      29.88R
DICKINSON      PTCLDY    73  56  54 SE9       29.92R
HETTINGER      MOCLDY    76  54  46 SE13      29.96R
$$

 *****  OTHER AIRPORT OBSERVATIONS IN OUR AREA  *****

CITY           SKY/WX    TMP DP  RH WIND       PRES   REMARKS
WALHALLA         N/A     63  57  82 MISG      30.03S
GRAFTON AIRPOR FAIR      64  57  77 NE6       30.02S HAZE
VALLEY CITY AR FAIR      66  55  68 E6        30.01R
CANDO          FAIR      63  55  77 E8        30.01R
CAVALIER APRT  FAIR      64  55  72 NE5       30.02S
GWINNER        FAIR      64  57  77 E6        30.01R
ROLLA          FAIR      59  57  94 E7        30.03S
 ***** THE ABOVE OBSERVATIONS ARE NON NWS ARE NOT QUALITY
       CONTROLLED AND MAY MIS-REPORT RAIN FOR SNOW...
$$

  *****  WEATHER ACROSS NORTHERN MINNESOTA  *****

CITY           SKY/WX    TMP DP  RH WIND       PRES   REMARKS
FLAG ISLAND    CLEAR     64  48  55 CALM      30.03S
WARROAD        CLEAR     63  54  72 E6        30.04S
ROSEAU         CLEAR     61  54  77 E5        30.03S
HALLOCK        CLEAR     63  55  77 N5        30.02R
THF RVR FALLS  CLEAR     64  54  68 E6        30.02S
BAUDETTE       CLEAR     61  52  72 NE6       30.04R
WASKISH        CLEAR     57  54  88 CALM      30.05R
CROOKSTON      CLEAR     66  55  68 CALM      30.02R
STEPHEN NDAWN    N/A     64  55  72 N5          N/A
GREENBUSH NDAW   N/A     63  55  77 NW3         N/A
$$
  *****  WEATHER ACROSS CENTRAL AND WEST MINNESOTA  *****

CITY           SKY/WX    TMP DP  RH WIND       PRES   REMARKS
FOSSTON        CLEAR     61  48  63 CALM      30.03S
BEMIDJI        CLEAR     61  52  72 CALM      30.04R
PARK RAPIDS    CLEAR     70  53  54 E6        30.02R
ELBOW LAKE     FAIR      70  58  66 CALM      30.01R
WADENA         CLEAR     64  54  68 CALM      30.02R
DETROIT LAKES  CLEAR     68  52  56 CALM      30.04R
MOORHEAD       CLEAR     68  57  68 E3        30.01R
FERGUS FALLS   CLEAR     70  55  60 CALM      30.01R
MORRIS MN      CLEAR     66  57  72 CALM      30.01R
STAPLES        CLEAR     68  52  56 NE3       30.02R
$$
  *****  WEATHER ELSEWHERE ACROSS MINNESOTA  *****

CITY           SKY/WX    TMP DP  RH WIND       PRES   REMARKS
DULUTH         PTCLDY    59  49  69 E7        30.03R
INTRNTL FALLS  CLEAR     56  51  84 NE3       30.04S
ELY            CLOUDY    57  52  82 CALM      30.06R
CLOQUET        CLEAR     61  48  63 E5        30.03R
WHEATON        CLEAR     63  55  77 SE3       30.02R
BRAINERD       CLEAR     65  53  65 NE6       30.01R
HIBBING        CLEAR     60  49  66 N6        30.04R
ALEXANDRIA     CLEAR     68  57  68 NW3       30.03R
SAINT CLOUD    CLEAR     66  58  75 NE3       29.99R
MINNEAPOLIS    PTCLDY    77  50  38 W7        29.99R
$$

  *****  WEATHER ACROSS SOUTH DAKOTA  *****

CITY           SKY/WX    TMP DP  RH WIND       PRES   REMARKS
SIOUX FALLS    MOCLDY    71  62  73 E7        29.99S
BROOKINGS      PTCLDY    70  57  64 SE7       30.03S
WATERTOWN      PTCLDY    73  55  53 E5        30.01R
HURON          MOCLDY    74  61  63 SE8       29.96R
SISSETON         N/A     69  56  62 CALM      29.99R
ABERDEEN       PTCLDY    72  59  63 E7        29.97R
MITCHELL       MOCLDY    70  65  84 E6        29.97S
PIERRE         MOCLDY    77  58  51 SE13      29.93R
MOBRIDGE       PTCLDY    76  62  62 SE9       29.94R
RAPID CITY     MOCLDY    74  60  61 SE5       29.96R
$$

  *****  SOME WEATHER IN NEARBY STATES *****

CITY           SKY/WX    TMP DP  RH WIND       PRES   REMARKS
GLASGOW MT     LGT RAIN  70  61  73 NE14      29.84F
GREAT FALLS MT PTCLDY    73  51  46 E6        29.93S
CHEYENNE WY    MOCLDY    68  54  60 MISG      30.17R
SCOTTSBLUFF NE MOCLDY    69  65  86 SE3       30.02R
OMAHA NE       CLOUDY    74  66  76 SE9       29.96S
DES MOINES IA  CLOUDY    75  62  64 SE7       30.00R
DAVENPORT IA   PTCLDY    69  65  86 W5        30.03R
CHICAGO IL     MOCLDY    74  53  48 N3        30.01R
EAU CLAIRE WI  CLEAR     66  58  75 CALM      29.98R
LA CROSSE WI   CLEAR     71  55  56 SW5       30.00R
$$

  *****  SOME NATIONAL WEATHER *****

CITY           SKY/WX    TMP DP  RH WIND       PRES   REMARKS
LA GUARDIA NY  PTCLDY    84  51  31 W5        29.89R
RALEIGH NC     PTCLDY    82  72  71 S6        29.95R
ATLANTA GA     PTCLDY    86  63  45 SW3       30.00R
NEW ORLEANS LA MOCLDY    82  74  76 SW9       29.96R
OKLAHOMA CITY  PTCLDY    79  75  87 SE7       29.92R
ALBUQUERQUE NM PTCLDY    90  40  17 N9        30.10S
SALT LAKE CITY MOCLDY    89  46  22 CALM      29.96F
LOS ANGELES CA PTCLDY    72  60  66 W17       29.89S
BOISE ID       PTSUNNY   89  42  19 W6        29.88S
SEATTLE WA     MOSUNNY   76  51  41 SW8       29.96F
$$

*** WEATHER ACROSS MANITOBA...SASKATCHEWAN AND ONTARIO ***
                ***ONTARIO***

CITY           SKY/WX    TMP DP  RH WIND       PRES   REMARKS
GERALDTON      PTCLDY    55  50  82 NW3       29.97R
THUNDER BAY    PTCLDY    57  54  88 W5        30.01R
SIOUX LOOKOUT  PTCLDY    52  50  93 W3        30.05R
TORONTO        MOCLDY    66  59  77 W7        29.91R
BIG TROUT LK   CLOUDY    57  50  77 NW8       30.02R
PICKLE LAKE    MOCLDY    57  54  88 NW3       30.02R
DRYDEN         PTCLDY    59  52  77 CALM      30.06R
KENORA         PTCLDY    61  52  72 E3        30.06R
$$
                *** MANITOBA***

CITY           SKY/WX    TMP DP  RH WIND       PRES   REMARKS
BRANDON        CLOUDY    64  55  72 E9        30.02R
DAUPHIN        MOCLDY    63  57  82 E9        30.02R
ISLAND LAKE    MOCLDY    59  54  82 CALM      30.05R
PILOT MOUND      N/A     63  55  77 E7          N/A
THE PAS        MOCLDY    66  55  68 NE2       30.02S
THOMPSON       CLOUDY    57  50  77 N2        30.07
WINNIPEG       PTCLDY    61  54  77 NE6       30.04R
LYNN LAKE      CLOUDY    61  54  77 NE7       30.07R
CHURCHILL      FOG       48  46  93 NW5       30.12S VSB 1/4
GILLAM         CLOUDY    55  48  76 NE8       30.08S
$$
                ***SASKATCHEWAN***

CITY           SKY/WX    TMP DP  RH WIND       PRES   REMARKS
ESTEVAN        CLOUDY    72  54  53 E13G21    29.93S
KINDERSLEY     MOCLDY    70  57  64 W10       29.79S
LLOYDMINSTER   LGT RAIN  66  57  72 E14       29.82
PRINCE ALBERT  LGT RAIN  64  57  77 E12G20    29.91R
REGINA         CLOUDY    73  54  49 SE15G22   29.88R
YORKTON        CLOUDY    66  57  72 E8        29.98R
N. BATTLEFORD  PTCLDY    66  55  68 E20G31    29.81S
LA RONGE       CLOUDY    61  57  88 SW6       30.01F
SASKATOON      CLOUDY    66  61  82 E14G22    29.83F
SWIFT CURRENT  CLOUDY    73  57  56 W6        29.84S
$$
NOTE: THESE ARE AUTOMATED STATIONS WITH LIMITED QUALITY CONTROL
      "FAIR" INDICATES FEW OR NO CLOUDS BELOW 12,000 FEET WITH NO
      SIGNIFICANT WEATHER AND/OR OBSTRUCTIONS TO VISIBILITY.
      SKY/WX - SKY CONDITION AND SIGNIFICANT WEATHER.
      TMP - AIR TEMPERATURE.    DP   - DEWPOINT TEMPERATURE.
      RH  - RELATIVE HUMIDITY.  PRES - PRESSURE.
      HX  - HEAT INDEX.         WCI  - WIND CHILL INDEX.
$



USA.gov is the U.S. government's official web portal to all federal, state and local government web resources and services.